Current weather by "City, St" or "zip code"  
 

Current Conditions: Atkinson Municipal Airport, KS

Overcast


42.0 F

Last Updated on Oct 23 2020, 9:55 pm CDT
Humidity: 74%
Wind Speed: N 8.1 G 16.1 mph
Barometer 30.31 in
Dewpoint: 34.0 F
Visibility: 10.00 mi
Precip: --
Heat Index: NA
Wind Chill: 37 F
Current conditions at:

Atkinson Municipal Airport, KS (KPTS)

Lat: 37.4494 Lon: 94.7311

Local Radar Image active severe weather and emergency alerts image image weather storm and storm spotter reports image weather observation monitoring service image
Local
Radar
Active
Alerts
Storm Reports Obs
Monitoring

Sign-up For Email & Text Message Weather Alert Notification Services



Advertise Here

Observation History for Atkinson Municipal Airport, KS


Time Wind
(mph)
Vis
(mi)
Weather Precip (in) Temperature (F) Relative
Humidity
Wind
Chill
(F)
Heat
Index
(F)
Pressure
Air Dwpt altimeter
(in)
sea level
(mb)
Rmks
9:55 pm CDT N 8.1 G 16.1 10.00 Overcast -- 42.0 34.0 74% 37 NA 30.31 M
8:55 pm CDT N 9.2 G 17.3 10.00 Overcast -- 42.0 34.7 74% 36 NA 30.31 M
7:55 pm CDT N 9.2 10.00 Overcast -- 43.0 35.1 74% 38 NA 30.31 M
6:55 pm CDT N 8.1 10.00 Overcast -- 43.0 35.6 76% 38 NA 30.30 M
5:55 pm CDT N 8.1 10.00 Overcast -- 43.0 35.8 75% 38 NA 30.28 M
4:55 pm CDT N 10.4 G 17.3 10.00 Overcast -- 43.0 36.5 77% 37 NA 30.27 M
3:55 pm CDT N 8.1 G 17.3 10.00 Overcast -- 44.0 37.8 79% 39 NA 30.25 M
2:55 pm CDT N 12.7 G 19.6 10.00 Overcast -- 44.0 38.1 80% 38 NA 30.25 M
1:55 pm CDT N 9.2 10.00 Overcast -- 44.0 39.0 83% 39 NA 30.25 M
12:55 pm CDT N 11.5 G 25.3 10.00 Overcast -- 42.0 39.2 90% 36 NA 30.25 M
11:55 am CDT N 12.7 G 19.6 10.00 Overcast -- 41.0 40.3 96% 34 NA 30.25 M
10:55 am CDT N 9.2 7.00 Overcast -- 39.0 38.3 96% 33 NA 30.24 M
9:55 am CDT N 5.8 G 16.1 5.00 Drizzle -- 39.0 37.4 95% 35 NA 30.21 M
8:55 am CDT N 8.1 G 18.4 5.00 Drizzle 00.06 39.0 37.0 94% 33 NA 30.17 M
7:55 am CDT N 12.7 G 20.7 10.00 Light Rain -- 40.0 37.4 90% 33 NA 30.11 M
6:55 am CDT N 12.7 G 20.7 10.00 Thunderstorm -- 42.0 38.7 88% 35 NA 30.07 M
5:55 am CDT N 9.2 G 18.4 10.00 Overcast -- 44.0 39.6 85% 39 NA 30.01 M
4:55 am CDT N 8.1 10.00 Overcast -- 49.0 43.0 81% 46 NA 29.99 M
3:55 am CDT NW 10.4 G 16.1 10.00 Overcast -- 51.0 46.0 83% 47 NA 29.97 M
2:55 am CDT NW 10.4 G 16.1 10.00 Overcast -- 55.0 47.8 77% 52 NA 29.95 M
1:55 am CDT SW 8.1 10.00 Overcast -- 70.0 63.1 79% NA NA 29.89 M
12:55 am CDT S 9.2 10.00 Mostly Cloudy -- 70.0 62.8 78% NA NA 29.89 M
11:55 pm CDT S 9.2 10.00 Fair -- 70.0 62.6 78% NA NA 29.90 M
10:55 pm CDT S 5.8 10.00 Mostly Cloudy -- 69.0 62.6 79% NA NA 29.91 M

Regional Weather Observation


Chanute, Chanute Martin Johnson Airport, KS (KCNU)

Overcast
42.0 F

Joplin, Joplin Regional Airport, MO (KJLN)

Overcast
43.0 F

Parsons, Tri-City Airport, KS (KPPF)

Fair
63.0 F

Coffeyville, Coffeyville Municipal Airport, KS (KCFV)

Overcast
43.0 F

INDEPENDENCE, KS (KIDP)

Overcast
42.0 F

Olathe, New Century Aircenter, KS (KIXD)

Overcast
38.0 F